www.pogodaiklimat.ru
Время
и дата
00:54 28.01
01:54 28.01
02:54 28.01
03:54 28.01
04:54 28.01
05:54 28.01
06:54 28.01
07:54 28.01
08:54 28.01
09:54 28.01
10:54 28.01
11:54 28.01
12:28 28.01
12:54 28.01
13:54 28.01
14:54 28.01
15:54 28.01
16:54 28.01
17:54 28.01
18:54 28.01
19:54 28.01
20:54 28.01
21:54 28.01
22:54 28.01
23:54 28.01
00:54 29.01
01:54 29.01
02:54 29.01
03:54 29.01
04:54 29.01
05:54 29.01
06:54 29.01
07:54 29.01
08:54 29.01
09:54 29.01
10:54 29.01
11:54 29.01
12:54 29.01
13:54 29.01
14:54 29.01
15:01 29.01
15:02 29.01
15:54 29.01
16:54 29.01
17:54 29.01
18:38 29.01
18:54 29.01
19:54 29.01
Ветер
(напр.,м/с)
Видим. Явления Облачность Т
(С)
Тd
(С)
f
(%)
Тe
(С)
Тes
(С)
Комфортность P
(гПа)
Po
(гПа)
Тmin
(С)
Tmax
(С)
R
(мм)
R24
(мм)
S
(см)
нст 3 16 км 10/0 2400 m
[Ac]
0.0 -8.3 54 -4 -4 1018.3 983.7 -1.1 +0.6
Ю 3 16 км 10/8 1650 m
[Ac]
+0.6 -8.3 51 -3 -3 1018.3 983.7
нст 3 16 км 10/10 1500 м +1.1 -7.8 51 -3 -3 1018.5 984.0
нст 2 16 км 8/2 1500 m
[Ac]
+1.7 -7.8 49 -1 -1 1018.5 984.0
ЮЗ 3 16 км 10/0 2250 m
[Ac]
+2.2 -7.8 48 -1 -1 1018.3 983.7
ЮЗ 4 16 км 10/10 1800 м +2.2 -7.2 50 -2 -2 1018.6 984.0
штиль 0 16 км 8/8 1650 м +1.1 -7.2 54 +1 +1 1019.5 985.0 +2.8
штиль 0 16 км ясно 0.0 -6.7 61 -1 -1 1021.0 986.3
ЮЗ 2 16 км ясно +3.3 -6.7 48 +1 +1 1021.9 987.3
ЮЗ 3 16 км ясно +5.0 -5.0 48 +2 +4 1022.5 987.9
З 6
{9}
16 км ясно +6.7 -3.9 47 +3 +4 1022.9 988.3
ЮЗ 6
{11}
16 км ясно +7.8 -3.9 43 +4 +6 1022.5 987.9
З 7
{12}
16 км ясно +8.3 -3.9 42 +5 +6 987.6
З 6
{11}
16 км ясно +8.9 -3.9 40 +6 +8 1022.2 987.6 -0.6 +8.9
ЮЗ 6 16 км ясно +9.4 -4.4 37 +6 +9 1022.2 987.6
З 6 16 км ясно +10.0 -4.4 36 +7 +9 1022.2 987.6
ЮЗ 6 16 км ясно +9.4 -5.0 36 +6 +7 1022.8 988.3
З 4 16 км ясно +8.3 -4.4 40 +6 +6 1023.5 988.9
ЮЗ 3 16 км ясно +7.2 -5.6 40 +5 +5 1024.2 989.6
ЮЗ 2 16 км ясно +6.7 -5.0 43 +5 +5 1024.6 989.9 +6.1 +10.0
Ю 2 16 км ясно +6.7 -5.0 43 +5 +5 1024.8 990.2
ЮЗ 2 16 км ясно +6.1 -5.0 45 +4 +4 1025.3 990.9
штиль 0 16 км ясно +4.4 -5.0 50 +4 +4 1025.6 990.9
штиль 0 16 км ясно +3.3 -4.4 57 +3 +3 1025.5 990.9
В 2 16 км ясно +3.3 -3.9 59 +1 +1 1024.9 990.6
В 2 16 км ясно +2.2 -3.9 64 -1 -1 1024.5 989.9 +2.2 +7.2
СВ 3 16 км 2/0 2100 m
[Ac]
+1.1 -3.3 72 -3 -3 1024.3 989.9
В 2 16 км 2/0 2100 m
[Ac]
+1.1 -3.3 72 -2 -2 1024.1 989.6
штиль 0 16 км ясно +0.6 -3.3 75 0 0 1023.5 988.9
В 2 16 км ясно +1.7 -2.8 72 -1 -1 1023.2 988.6
штиль 0 16 км ясно +1.7 -2.8 72 +1 +1 1022.5 987.9
штиль 0 16 км ясно +3.9 -2.8 62 +3 +3 1022.0 987.6 +3.9
нст 2 16 км 5/0 2850 m
[Ac]
+5.6 -2.2 57 +4 +4 1021.8 987.6
З 2 16 км 8/0 2700 m
[Ac]
+5.6 -2.2 57 +4 +4 1021.5 987.3
ЮЗ 3 16 км 5/0 2700 m
[Ac]
+6.7 -2.2 53 +4 +5 1021.0 986.6
З 3 16 км 10/0 2250 m
[Ac]
+7.2 -2.2 51 +5 +6 1020.6 986.3
ЮЗ 4 16 км 2/0 2250 m
[Ac]
+7.8 -2.2 49 +5 +8 1019.5 985.3
штиль 0 16 км 8/0 2100 m
[Ac]
+8.3 -1.7 49 +8 +11 1018.4 984.0 +3.9 +8.9
ЮЗ 4 16 км 8/0 2700 m
[Ac]
+9.4 -1.7 46 +7 +9 1017.5 983.4
ЮЗ 6 16 км 10/10 1650 м +8.3 -2.8 45 +5 +5 1017.7 983.4
ЮЗ 4
{8}
16 км 10/10 1470 м +8.9 -2.8 44 +6 +6 983.4
ЮЗ 4
{8}
16 км 10/10 1470 м +8.9 -2.2 46 +6 +6 983.4
ЮЗ 5 16 км 10/10 1140 м +8.3 -1.7 49 +5 +5 1018.3 984.0
ЮЗ 3 16 км 10/10 1020 м +7.8 -1.7 51 +6 +6 1018.1 983.7
З 3 16 км 10/10 930 м +7.2 -0.6 58 +5 +5 1018.9 984.7
З 3 16 км 10/10 870 м +6.7 -0.6 60 +4 +4 985.0
З 3 16 км 10/10 870 м +6.7 -0.6 60 +4 +4 1019.3 985.0 +6.7 +9.4
З 3 16 км 10/10 780 м +6.7 -0.6 60 +4 +4 1019.6 985.3
Местоположение метеостанции Wilkes-Barre / Scranton International Airport: широта 41.3336 долгота -75.7269 высота над уровнем моря 284 м.
В архиве по умолчанию представлена погода в Уилкс-Барре за последние 1-2 суток. Обновление информации о фактической погоде в базе происходит ежечасно! Архивные данные за месяц целиком и за предыдущие месяцы Вы можете получить, выбрав интересующий диапазон дат из раскрывающегося списка и нажав кнопку "Ввод!".
Внимание! Архив погоды МЕТАР в базе сайта по станциям, не включенным в климатический монитор, хранится не более 60 дней. Нет смысла пытаться выбрать более раннюю дату.
*Определитесь, кто Вы:
Внимание! Время в таблицах - местное (без учета летнего времени). Для получения всемирного времени необходимо вычесть поправку, которая равна -5 ч.
Смотрите также архив погоды в соседних городах и на ближайших метеорологических станциях:
Партнеры нашего сайта:      
Пояснения к столбцам:
  • Ветер - указаны скорость ветра в м/с - средняя за 10 мин, порывы в срок и между сроками (в фигурных скобках) и направление, откуда дует ветер: С - северный,
  • СВ - северо-восточный, В - восточный, ЮВ - юго-восточный, Ю - южный, ЮЗ - юго-западный, З - западный, СЗ - северо-западный.
  • Видимость - горизонтальная дальность видимости в метрах или километрах. При видимости от 1 до 10 км при отсутствии осадков обычно наблюдается дымка, при ухудшении видимости до 1 км и менее - туман. В сухую погоду видимость может ухудшаться дымом, пылью или мглою.
  • Явления - указаны атмосферные явления, наблюдавшиеся в срок или в последний час перед сроком; фигурными скобками обозначены явления, наблюдавшиеся между сроками (за 1-3 часа до срока); квадратными скобками обозначены град или гололедные отложения с указанием их диаметра в мм.
  • Облачность - указаны через наклонную черту общая и нижняя облачность в баллах и высота нижней границы облаков в метрах; квадратными скобками обозначены формы облаков: Ci - перистые, Cs - перисто-слоистые, Cc - перисто-кучевые, Ac - высококучевые, As - высокослоистые, Sc - слоисто-кучевые, Ns - слоисто-дождевые, Cu - кучевые, Cb - кучево-дождевые. Подробнее классификацию облаков см. в Атласе облаков (PDF).
  • T - Температура воздуха - температура, измеренная на высоте 2 м над землей.
  • Td - Температура точки росы - температура, при понижении до которой содержащийся в воздухе водяной пар достигнет насыщения.
  • f - Относительная влажность воздуха - влажноcть воздуха, измеренная на высоте 2 м над землей.
  • Te - Эффективная температура - температура, которую ощущает одетый по сезону человек в тени. Характеристика душности погоды. При расчете учитывается влияние влажности воздуха и скорости ветра на теплоощущения человека.
  • Tes - Эффективная температура на солнце - температура, которую ощущает человек, с поправкой на солнечный нагрев. Характеристика знойности погоды. Зависит от высоты солнца над горизонтом, облачности и скорости ветра. Ночью, в пасмурную погоду, а также при ветре 12 м/с и более поправка равна нулю.
  • P - Атмосферное давление - приведенное к уровню моря атмосферное давление.
  • Po - Атмосферное давление - измеренное на уровне метеостанции атмосферное давление.
  • Tmin - Минимальная температура - минимум температуры воздуха на высоте 2 м над землей.
  • Tmax - Максимальная температура - максимум температуры воздуха на высоте 2 м над землей.
  • R - Количество осадков - Количество выпавших осадков за период времени, мм. При наведении курсора мыши на число - период времени, за который выпало указанное количество осадков.
  • R24 - Количество осадков - Количество выпавших осадков за 24 часа, мм.
  • S - Снежный покров - Высота снежного покрова, см. При наведении курсора мыши на число - состояние снежного покрова и степень покрытия местности в баллах.